GFSNW_con_lsi_021.txt.gz
Lid_Strength_Index
6 6 6 6 6 7 7 8 10 5 3 8 9 11 10 10 10 8 9 9 9 8 7 7 7 7 6 4 5 7 5 7 9 8 5 5 6 7 7 10 11 9 10 9
4 4 4 4 5 5 5 7 6 2 4 10 9 8 9 9 10 10 10 10 9 8 8 8 7 6 5 5 5 6 5 8 10 9 7 6 7 7 6 7 7 10 11 10
2 2 2 2 2 2 3 5 8 5 4 4 7 9 10 11 8 9 9 10 9 9 9 7 8 7 5 4 5 4 5 7 8 10 9 7 8 7 7 7 9 9 9 8
2 1 0 0 0 0 2 4 6 4 8 7 6 7 7 10 11 9 8 9 9 10 10 9 9 7 6 5 4 5 5 8 7 7 7 7 7 7 7 8 7 9 8 8
-0 -0 -1 -1 -1 -0 2 6 6 4 6 5 6 7 8 9 10 9 10 10 8 8 8 8 9 7 6 6 5 5 5 8 7 8 7 7 8 7 7 7 7 7 7 7
-1 -1 -1 -1 -1 0 3 2 2 4 6 6 7 8 8 8 7 7 6 8 9 8 7 5 5 5 5 5 6 6 6 7 9 10 8 8 10 8 7 7 6 7 8 6
-1 -1 -1 -1 -1 -1 1 2 3 7 8 7 7 7 7 7 7 7 8 7 9 6 5 5 5 4 5 5 5 5 6 8 8 10 9 14 8 5 6 6 6 5 5 5
-1 -1 -1 -1 -1 -1 0 0 3 6 8 6 6 6 7 7 6 6 7 7 6 5 6 7 8 8 8 7 6 5 5 7 9 11 11 9 8 7 7 8 8 5 5 5
-1 -1 -1 -1 -1 -1 -0 0 1 4 8 7 6 7 6 8 8 7 6 5 4 6 8 9 12 12 9 10 8 5 6 6 9 10 13 14 9 7 6 6 9 5 5 5
-1 -1 -1 -1 -1 -1 -1 1 -0 3 8 5 4 7 8 6 7 9 6 6 6 5 10 12 12 11 7 10 10 9 9 9 11 11 12 9 7 6 5 11 10 6 5 5
-1 -1 -1 -1 -1 -1 -1 1 -1 3 6 5 3 3 5 6 6 10 6 7 7 8 11 11 10 10 9 9 8 9 9 10 10 10 12 13 6 6 9 8 5 5 5 5
-1 -1 -1 -1 -1 -1 -1 2 -1 -0 4 5 1 2 1 2 3 5 6 7 7 6 9 10 10 12 10 9 11 6 10 8 9 8 9 6 5 6 5 5 5 5 4 4
-1 -1 -1 -1 -1 -1 -0 1 0 1 4 4 4 4 1 0 2 2 7 6 6 6 5 8 9 13 11 12 10 8 6 5 8 9 8 7 6 5 4 4 5 4 4 4
-1 -1 -1 -1 -1 -0 -0 1 -0 2 4 7 5 1 2 1 1 2 3 4 3 4 5 9 10 11 8 12 11 10 11 9 9 9 7 6 6 5 4 4 3 4 4 4
-1 -1 -0 -0 0 0 0 0 -0 -0 4 7 5 2 1 1 2 3 3 4 5 7 8 10 11 8 8 8 10 11 9 10 12 11 6 7 6 4 4 4 4 3 4 4
-0 -0 -0 -0 1 0 1 4 1 -0 1 6 8 3 3 2 2 2 3 4 5 6 9 9 7 6 8 12 13 9 7 7 6 9 5 5 4 4 5 4 4 4 3 3
-0 0 0 1 0 1 3 5 2 2 1 6 9 8 4 2 2 3 3 4 6 8 9 8 8 8 8 10 13 8 7 6 6 4 5 6 5 6 5 5 5 5 4 4
-0 0 1 0 0 1 4 2 1 1 4 6 10 9 6 2 5 6 3 6 5 6 7 7 8 8 8 12 9 7 6 6 6 5 4 4 4 4 4 5 6 6 6 4
-0 0 0 0 2 3 2 1 1 2 5 9 9 11 11 3 6 4 5 5 9 6 9 9 8 10 12 10 8 7 6 7 7 6 5 5 5 5 4 5 6 6 6 5
-0 0 2 4 1 1 1 3 6 7 7 7 9 6 9 6 5 6 6 5 8 12 10 7 10 11 8 7 6 6 6 7 6 7 8 7 8 7 6 6 5 5 5 5
1 3 4 1 -0 2 4 7 9 9 9 7 7 6 8 4 8 9 7 9 8 13 11 11 12 12 9 6 6 5 5 4 6 6 6 5 5 5 5 5 4 5 4 3
2 2 1 1 4 6 9 9 8 9 11 7 8 7 5 5 4 8 7 10 10 14 8 11 14 10 7 6 6 5 4 4 4 4 4 4 4 4 4 4 4 4 3 3
0 3 5 6 6 12 12 13 12 11 8 7 6 8 5 5 6 8 9 10 11 8 11 13 11 7 6 6 5 5 4 4 4 4 3 3 3 3 3 3 3 3 3 2
5 7 12 10 11 9 10 10 9 6 5 6 6 6 6 5 6 7 10 9 8 12 14 14 10 7 6 5 4 4 4 4 5 5 4 4 4 3 2 2 2 3 3 3
6 6 12 9 6 5 6 5 5 5 4 5 6 6 5 6 8 7 9 11 14 13 14 10 8 6 5 4 4 4 3 4 4 4 4 4 3 3 3 2 2 2 2 2
4 6 7 5 6 6 6 5 5 4 4 4 5 7 8 9 9 10 11 12 14 12 9 7 6 6 4 4 4 3 3 3 2 2 3 3 2 2 2 2 1 1 2 2
5 6 4 4 5 5 5 4 4 3 5 7 6 10 11 7 10 11 10 12 10 8 7 6 5 5 4 4 4 3 3 3 2 2 2 2 1 1 2 2 2 2 2 1

GFSNW_con_lsi_024.txt.gz
Lid_Strength_Index
5 5 5 5 6 6 7 8 11 4 3 9 8 11 9 9 9 8 9 9 10 11 10 8 8 8 6 5 5 7 6 7 9 8 6 5 6 8 8 10 11 9 10 10
4 4 4 4 5 5 6 8 8 2 3 11 9 7 8 8 9 9 9 10 9 9 10 10 8 7 5 5 5 6 6 8 10 10 8 6 7 7 7 7 8 10 12 10
4 3 3 3 2 2 3 6 8 4 3 4 6 7 8 8 7 8 8 9 8 10 10 8 9 8 6 5 5 5 5 7 9 11 9 7 8 8 7 8 10 10 9 9
2 1 0 -0 -0 -0 1 4 6 5 8 7 6 7 8 9 9 7 7 9 10 10 12 10 10 8 8 6 5 5 6 9 8 8 7 7 8 8 8 8 8 10 8 8
0 -1 -2 -1 -1 -1 2 6 6 5 6 6 6 7 8 8 8 8 9 9 9 9 11 9 12 10 8 7 6 6 5 9 8 9 7 8 8 7 7 7 8 8 7 8
-2 -1 -1 -1 -1 -0 2 2 2 6 7 7 7 7 7 8 7 7 6 7 9 10 10 9 9 9 8 7 7 7 7 8 10 11 8 8 10 8 8 7 7 7 9 7
-2 -1 -1 -1 -1 -1 0 2 3 7 10 8 8 6 6 7 7 8 7 6 8 7 6 7 7 7 7 7 7 6 8 8 9 11 10 15 8 6 6 7 6 6 6 5
-1 -1 -1 -1 -1 -1 1 0 3 6 10 7 7 6 7 7 6 7 6 5 4 5 7 10 11 10 8 8 7 7 6 8 10 12 12 9 8 7 7 7 8 5 6 5
-1 -1 -1 -1 -1 -1 -0 0 0 4 8 8 5 8 6 8 8 7 6 4 3 5 9 11 15 15 11 11 8 6 6 7 9 10 13 14 9 6 5 6 10 5 6 6
-2 -1 -1 -1 -1 -1 -0 0 -0 3 7 5 5 7 7 6 7 9 7 7 7 4 10 14 15 14 10 12 12 10 9 9 11 11 12 10 7 6 5 12 10 6 6 5
-1 -1 -1 -1 -1 -1 -1 1 -1 3 6 5 3 3 5 5 6 9 7 8 7 7 11 12 12 13 11 11 9 10 10 11 11 11 13 14 6 6 9 7 5 5 5 5
-1 -1 -1 -1 -1 -1 -1 2 -1 -0 4 5 2 2 1 2 3 5 6 7 7 7 10 10 10 12 11 11 13 7 10 8 10 9 10 8 6 7 5 5 5 5 5 4
-1 -1 -1 -1 -1 -1 -1 1 1 1 5 5 4 4 2 0 1 2 7 6 5 6 5 8 9 12 10 14 12 10 7 6 8 9 7 7 6 5 4 4 4 4 4 4
-1 -1 -1 -1 -1 -0 -0 1 0 2 4 8 6 1 2 0 1 1 2 4 4 4 4 8 9 11 8 11 11 11 10 9 9 8 7 7 6 5 4 4 4 5 4 5
-1 -0 -0 -0 -0 0 -0 1 0 -0 4 9 7 3 2 1 2 2 3 4 5 6 7 9 11 8 9 8 9 11 9 10 12 12 9 8 7 5 4 5 5 4 4 5
-0 0 0 0 0 1 2 5 0 -0 1 6 9 3 3 3 2 3 3 4 5 5 7 9 8 6 8 11 13 9 8 7 6 9 7 7 5 4 4 4 4 4 4 3
-0 -0 0 0 1 1 4 5 2 1 1 6 9 8 4 3 3 4 3 4 5 6 9 10 8 8 8 11 13 9 8 7 6 6 6 8 6 6 5 4 4 5 4 5
-0 -0 -0 0 0 1 3 1 1 1 4 6 10 9 7 3 6 6 4 6 6 7 8 8 8 8 8 12 9 8 7 6 7 6 5 6 5 4 5 4 5 5 5 4
-0 0 -0 1 2 4 2 1 2 3 6 10 9 12 12 5 7 6 5 5 9 6 9 9 9 10 12 10 9 8 7 7 7 5 5 5 5 5 4 4 5 6 7 6
1 0 3 5 2 1 1 4 6 7 7 8 10 7 10 7 6 7 7 6 10 12 10 7 10 11 8 7 6 6 6 5 5 7 7 6 6 5 5 6 5 4 5 5
1 4 5 3 1 2 5 8 9 9 10 8 8 7 9 5 9 9 7 9 9 14 11 11 12 12 9 6 6 5 5 5 5 5 5 5 5 5 4 4 4 4 4 4
3 4 3 2 4 6 9 10 8 9 11 8 8 7 7 6 5 9 8 11 10 14 8 11 14 11 7 6 6 5 4 4 5 4 4 4 4 4 4 4 4 4 3 3
0 3 5 6 6 12 13 14 12 11 7 7 7 9 7 6 6 8 10 12 13 8 11 13 11 8 7 6 5 5 4 4 4 4 4 4 4 3 3 4 3 3 3 3
4 6 12 9 10 9 10 10 9 6 6 5 6 8 8 8 9 8 12 10 9 13 15 14 10 8 7 6 5 5 5 5 5 4 4 4 4 4 3 3 3 3 3 3
5 6 12 8 6 5 5 6 6 6 5 5 7 8 7 8 9 8 9 11 14 13 14 10 8 7 6 5 5 4 4 4 4 4 4 3 3 4 4 3 3 3 3 3
4 5 6 5 6 6 6 6 5 4 4 4 5 7 9 9 9 11 12 13 15 12 9 7 6 6 5 5 4 4 3 4 4 3 3 3 3 3 3 2 2 2 2 2
5 6 4 5 6 6 6 5 5 3 5 8 7 10 11 8 11 13 10 12 10 8 7 6 5 5 5 4 4 4 4 4 4 4 3 3 2 2 2 3 2 2 2 1

GFSNW_con_lsi_030.txt.gz
Lid_Strength_Index
3 3 4 4 5 6 9 14 17 10 9 16 16 15 14 12 12 9 11 12 13 14 14 15 15 14 13 10 10 13 11 12 14 12 10 8 9 11 13 14 17 15 13 14
2 2 2 3 4 5 10 14 14 10 11 17 16 13 12 11 11 12 10 12 12 12 14 16 14 13 10 10 11 12 11 14 16 15 12 10 11 11 10 15 15 14 16 15
-0 -1 -0 0 1 1 6 11 14 12 10 9 12 12 11 12 9 10 10 11 11 13 14 14 15 13 11 10 10 8 11 14 15 15 14 12 13 11 11 12 13 14 14 14
-2 -2 -2 -1 -1 -1 3 7 10 8 11 9 9 9 9 10 11 9 9 11 11 12 15 14 14 13 13 12 9 12 14 17 15 14 11 10 10 10 10 12 11 13 13 13
-1 -2 -2 -2 -1 -1 3 7 8 6 8 8 9 9 10 10 10 9 10 10 9 11 13 12 15 15 15 15 12 14 14 17 15 14 11 11 11 10 10 10 10 11 13 13
-2 -2 -2 -2 -1 0 4 3 3 6 8 10 10 10 10 10 8 8 7 8 9 10 10 9 10 12 13 13 14 15 15 16 16 17 12 11 13 11 10 10 9 10 13 11
-2 -2 -2 -2 -1 -1 2 2 3 7 10 9 9 8 8 8 8 9 7 7 9 7 5 5 7 9 12 12 12 12 14 15 16 17 15 16 11 9 8 10 10 9 10 10
-2 -2 -1 -1 -2 -1 1 2 3 6 10 8 8 8 8 8 7 8 8 6 6 5 7 11 13 12 12 13 12 12 11 12 15 17 16 13 10 10 10 11 11 8 9 9
-2 -2 -2 -2 -2 -1 1 2 1 4 8 9 6 8 8 10 10 9 8 5 5 6 10 12 16 17 15 13 12 11 10 10 12 14 16 17 12 8 6 8 13 8 8 8
-1 -2 -2 -1 -2 -1 2 2 2 3 8 6 6 8 9 7 9 10 8 8 8 8 11 14 15 16 11 15 13 14 14 13 14 14 14 13 9 7 7 12 12 8 8 7
-1 -1 -1 -1 -1 -1 1 3 2 3 6 5 4 5 7 6 8 10 8 9 9 10 13 13 14 14 13 14 12 12 14 16 15 13 15 16 8 9 11 9 8 7 7 7
-0 -0 -0 -1 -1 -1 -0 3 1 1 4 6 3 3 2 3 4 7 8 8 8 8 11 11 11 13 12 14 16 10 15 12 14 13 14 9 8 9 8 7 8 8 8 7
-0 -0 -0 -0 -0 -1 0 4 4 3 5 5 7 6 4 2 3 2 8 7 6 7 6 9 10 13 11 15 14 12 10 9 12 12 9 10 8 8 7 6 7 6 6 6
-0 -0 -0 -0 -1 -0 -0 4 4 3 5 9 8 4 5 3 4 4 4 6 5 5 6 10 11 12 9 12 11 12 10 10 11 11 9 9 8 8 7 6 6 6 6 6
0 0 0 0 0 -0 2 3 3 3 6 9 8 6 5 5 4 5 5 6 7 7 10 10 11 9 9 9 10 12 9 11 12 13 9 9 9 8 6 7 8 7 7 7
1 1 1 1 1 1 6 8 4 3 4 8 12 7 7 5 3 5 7 7 7 8 9 10 9 8 9 12 13 9 8 7 7 9 7 7 7 7 7 7 6 6 7 7
2 2 1 1 2 4 7 8 5 3 4 9 11 11 7 4 5 5 7 5 6 7 8 10 10 9 8 11 13 9 8 7 7 6 6 8 7 8 6 6 6 6 6 6
2 2 2 2 2 3 5 4 4 4 7 8 12 12 9 5 8 8 6 7 7 7 8 8 9 8 9 13 9 8 7 7 7 6 5 6 5 5 5 5 5 6 6 5
1 2 2 4 6 7 5 3 3 5 7 11 12 14 13 6 7 6 7 7 11 8 10 10 9 10 13 10 9 8 7 8 7 6 6 6 6 6 6 5 5 6 6 5
1 3 6 7 5 2 3 6 8 9 9 10 14 11 13 8 8 9 9 8 10 12 11 9 11 11 8 7 7 6 6 6 6 7 8 7 7 6 6 6 5 5 5 5
5 8 8 6 2 5 6 9 11 11 13 12 12 11 12 7 10 10 8 10 11 15 11 11 13 13 9 7 6 6 5 5 5 5 5 5 5 6 5 5 5 4 4 5
5 6 5 6 6 9 11 12 11 10 11 9 10 8 8 7 6 9 9 11 11 14 9 12 15 10 8 7 6 6 5 5 5 5 5 5 5 4 5 5 5 4 4 4
4 6 6 7 9 12 14 15 12 12 9 8 8 9 8 7 7 9 10 12 13 8 13 15 12 9 7 6 6 6 5 5 5 5 4 4 4 4 5 5 5 5 4 4
7 8 11 10 11 10 10 10 10 7 7 8 8 9 9 8 9 9 12 11 10 14 15 14 10 8 7 6 5 5 6 5 5 5 4 4 4 4 4 5 5 5 6 5
8 8 11 10 8 7 7 6 7 6 6 7 8 8 8 9 10 10 10 12 14 14 14 11 8 7 6 6 5 6 5 5 5 5 5 5 5 5 6 5 5 5 4 4
6 6 9 8 9 8 7 7 7 5 6 7 8 9 11 11 11 12 13 14 15 12 9 7 6 6 6 6 5 5 6 6 6 6 6 6 5 6 7 6 6 5 5 5
6 8 6 7 8 8 7 6 6 5 6 9 9 11 12 9 12 13 11 12 10 8 7 6 6 6 5 5 5 4 4 5 6 7 7 7 7 8 7 7 7 5 5 5

GFSNW_con_lsi_033.txt.gz
Lid_Strength_Index
2 2 2 2 2 3 7 13 17 11 10 16 17 17 15 12 12 11 13 13 14 15 14 16 16 15 13 10 11 14 13 17 15 13 11 9 10 12 15 16 17 17 15 15
-0 -1 -0 0 0 1 6 10 12 7 9 15 16 14 12 11 13 12 13 14 13 13 15 17 14 13 10 11 12 13 12 17 19 17 15 13 13 12 11 12 16 15 17 16
-1 -1 -1 -1 -0 -0 5 8 11 9 9 8 11 13 13 13 10 10 11 12 12 13 15 14 15 14 11 11 12 9 13 17 17 18 17 14 15 13 12 13 15 14 14 15
-2 -2 -2 -1 -1 -0 3 6 10 9 11 10 10 10 10 11 11 8 9 12 12 13 16 14 15 14 14 12 10 13 15 18 17 15 14 13 13 12 11 14 13 14 13 14
-2 -2 -2 -1 -1 -1 4 7 8 6 8 7 10 9 10 10 10 10 10 11 10 11 14 13 15 15 16 16 13 15 15 17 16 16 13 13 13 12 12 12 11 13 13 14
-2 -2 -2 -2 -1 0 4 3 3 6 8 8 10 11 10 10 8 8 8 8 9 11 10 9 9 12 14 14 15 16 17 17 18 19 15 14 15 13 12 11 11 11 13 13
-1 -1 -2 -2 -1 -0 2 3 3 7 10 9 9 8 8 9 8 9 8 8 9 7 6 7 8 10 12 13 14 13 16 17 17 19 17 19 13 10 9 11 11 11 11 11
-1 -1 -1 -1 -2 -1 3 3 4 6 10 8 8 8 8 8 8 9 9 8 6 6 8 11 13 12 13 12 13 14 13 14 17 19 18 15 12 11 11 12 12 10 10 9
-0 -1 -1 -1 -1 -1 3 4 2 4 8 9 6 9 8 9 10 9 8 6 6 7 10 12 16 17 15 14 12 11 13 13 14 17 19 18 13 9 7 8 13 9 9 9
-0 -0 -1 -1 -1 -1 3 4 2 3 8 6 6 8 9 6 8 10 9 8 8 8 11 14 15 15 12 15 15 14 13 13 16 16 16 15 10 9 8 13 12 8 7 8
-0 -0 -1 -1 -1 -1 2 3 3 4 6 6 5 5 6 7 7 10 9 9 8 10 12 13 13 14 13 14 12 14 15 15 16 15 16 18 9 9 14 11 8 8 7 7
1 1 0 -0 -0 -0 0 4 2 1 4 5 4 3 3 4 4 7 8 9 9 8 11 11 11 13 12 14 16 10 14 13 14 12 13 10 9 8 7 7 8 8 7 7
1 1 1 0 0 0 1 4 4 5 6 6 6 7 4 3 3 3 7 7 6 8 5 8 10 13 11 14 14 12 10 9 12 12 10 9 8 7 7 7 7 7 6 7
1 1 1 1 1 1 1 4 4 4 6 10 9 5 7 4 4 4 4 6 7 5 6 9 10 12 9 12 11 12 10 10 11 11 10 8 8 7 8 7 7 7 7 7
2 1 1 1 1 1 2 3 4 4 8 10 9 6 6 6 6 6 6 7 8 8 9 9 11 9 9 10 10 12 9 11 12 13 9 9 9 7 7 8 9 9 8 8
2 2 2 2 2 2 6 9 6 4 5 9 12 9 8 7 6 5 7 7 8 8 9 11 9 7 10 14 14 9 8 7 7 9 7 7 6 6 6 8 7 7 7 7
2 2 2 2 2 4 8 9 6 4 5 9 12 11 7 5 6 6 8 8 9 9 9 10 10 10 9 13 15 9 8 7 7 6 6 8 7 7 6 6 6 7 6 6
2 2 2 3 3 4 6 5 4 5 7 9 13 12 10 6 9 8 6 7 7 8 9 8 10 10 10 13 9 8 7 7 7 6 6 6 6 5 5 5 5 6 6 7
2 2 3 5 6 8 7 3 4 5 8 13 13 14 13 7 8 7 7 7 11 8 10 10 10 11 13 10 9 8 7 8 7 6 6 6 6 6 6 6 6 6 6 5
2 5 7 9 7 3 4 7 9 10 10 10 15 13 14 9 8 9 8 8 10 14 12 9 11 12 9 7 7 7 7 6 6 8 8 7 7 6 6 6 5 5 6 6
6 8 9 8 4 5 7 10 11 11 15 15 13 13 13 8 11 10 8 11 12 15 11 12 14 14 9 7 7 6 5 5 5 5 5 5 5 6 6 6 5 5 5 5
6 5 5 7 7 9 11 12 11 12 13 9 11 9 10 8 7 9 9 12 11 14 9 13 15 12 8 7 7 6 5 5 5 5 5 5 5 5 5 5 5 4 4 4
6 7 7 9 9 12 13 14 12 11 9 8 8 9 8 7 7 9 10 12 13 9 14 16 12 8 7 7 6 6 5 5 5 5 4 4 4 4 4 5 5 5 4 4
7 9 11 11 11 10 10 10 10 7 7 8 8 9 9 8 9 9 12 10 10 14 15 14 10 8 7 6 5 6 6 5 5 5 5 5 5 6 5 5 6 5 4 4
7 8 12 10 8 7 7 7 7 6 6 8 8 8 8 10 10 10 10 12 15 13 14 11 8 7 6 6 6 6 7 7 7 6 6 7 7 7 6 6 5 5 5 4
5 6 9 7 8 8 8 8 8 6 6 7 8 9 11 11 11 12 13 14 15 12 9 7 6 6 6 6 6 8 8 8 9 9 9 9 8 7 7 6 6 6 6 5
7 8 7 7 8 9 9 8 8 6 7 9 9 12 12 9 12 13 11 12 10 8 7 6 6 6 6 5 6 6 7 8 9 9 9 9 9 8 9 9 7 7 7 6